WetterOnline ( http://www.wetteronline.de )

Wetter aktuell Westhofen

Aktuelles Wetter: Geisenheim (110m)

6-stündlich | Neueste Meldungen
Ortszeit Temperatur Wetter
Mo, 18.06. 2:00 14.1° C bedeckt
So, 17.06. 20:00 20.0° C bewölkt
So, 17.06. 14:00 21.2° C bedeckt
So, 17.06. 8:00 17.0° C leicht bewölkt
So, 17.06. 2:00 17.4° C fast wolkenlos
Sa, 16.06. 20:00 25.2° C fast wolkenlos
Sa, 16.06. 14:00 24.3° C bewölkt
Sa, 16.06. 8:00 17.7° C bedeckt
Ortszeit Temperatur Wetter
Mo, 18.06. 3:30 14.3° C bedeckt
Mo, 18.06. 3:20 14.3° C bedeckt
Mo, 18.06. 3:10 14.3° C bedeckt
Mo, 18.06. 3:00 14.2° C bedeckt
Mo, 18.06. 2:50 14.2° C bedeckt
Mo, 18.06. 2:40 14.2° C bedeckt
Mo, 18.06. 2:30 14.2° C bedeckt
Mo, 18.06. 2:00 14.1° C bedeckt
Mo, 18.06. 1:30 13.7° C bewölkt
Mo, 18.06. 1:00 13.8° C wolkig
Mo, 18.06. 0:30 14.2° C wolkenlos
Ortszeit Relative Feuchte Sichtweite
Mo, 18.06. 2:00 82% 35 km
So, 17.06. 20:00 54% 50 km
So, 17.06. 14:00 51% 50 km
So, 17.06. 8:00 72% 30 km
So, 17.06. 2:00 81% 24 km
Sa, 16.06. 20:00 43% 40 km
Sa, 16.06. 14:00 55% 26 km
Sa, 16.06. 8:00 84% 22 km
Ortszeit Relative Feuchte Sichtweite
Mo, 18.06. 3:30 85% 40 km
Mo, 18.06. 3:20 85% -
Mo, 18.06. 3:10 82% -
Mo, 18.06. 3:00 83% 35 km
Mo, 18.06. 2:50 83% -
Mo, 18.06. 2:40 82% -
Mo, 18.06. 2:30 82% 35 km
Mo, 18.06. 2:00 82% 35 km
Mo, 18.06. 1:30 82% 30 km
Mo, 18.06. 1:00 83% 30 km
Mo, 18.06. 0:30 82% 30 km
Ortszeit Niederschlagsmenge Niederschlagsart
Mo, 18.06. 2:00 0.0 l/m2 in 6 Std. -
So, 17.06. 20:00 0.0 l/m2 in 12 Std. -
So, 17.06. 14:00 0.0 l/m2 in 6 Std. -
So, 17.06. 8:00 0.0 l/m2 in 12 Std. -
So, 17.06. 2:00 0.0 l/m2 in 6 Std. -
Sa, 16.06. 20:00 0.0 l/m2 in 12 Std. -
Sa, 16.06. 14:00 0.0 l/m2 in 6 Std. -
Sa, 16.06. 8:00 0.0 l/m2 in 12 Std. -
Ortszeit Niederschlagsmenge Niederschlagsart
Mo, 18.06. 3:30 0.0 l/m2 in 1 Std. -
Mo, 18.06. 3:20 keine Meldung -
Mo, 18.06. 3:10 keine Meldung -
Mo, 18.06. 3:00 0.0 l/m2 in 1 Std. -
Mo, 18.06. 2:50 keine Meldung -
Mo, 18.06. 2:40 keine Meldung -
Mo, 18.06. 2:30 0.0 l/m2 in 1 Std. -
Mo, 18.06. 2:00 0.0 l/m2 in 1 Std. -
Mo, 18.06. 1:30 0.0 l/m2 in 1 Std. -
Mo, 18.06. 1:00 0.0 l/m2 in 1 Std. -
Mo, 18.06. 0:30 0.0 l/m2 in 1 Std. -
Ortszeit Stärke Spitze Richtung
km/h Bft. km/h Grad Sektor
Mo, 18.06. 2:00 0 0 25 - -
So, 17.06. 20:00 17 3 30 280° W
So, 17.06. 14:00 13 3 22 310° NW
So, 17.06. 8:00 6 1 13 200° S
So, 17.06. 2:00 7 2 40 300° NW
Sa, 16.06. 20:00 11 2 22 280° W
Sa, 16.06. 14:00 7 2 13 210° SW
Sa, 16.06. 8:00 4 1 11 220° SW
Ortszeit Stärke Spitze Richtung
km/h Bft. km/h Grad Sektor
Mo, 18.06. 3:30 0 0 4 - -
Mo, 18.06. 3:20 0 0 - - -
Mo, 18.06. 3:10 0 0 - 230° SW
Mo, 18.06. 3:00 0 0 7 - -
Mo, 18.06. 2:50 0 0 - - -
Mo, 18.06. 2:40 2 1 - 340° N
Mo, 18.06. 2:30 7 2 7 350° N
Mo, 18.06. 2:00 0 0 11 - -
Mo, 18.06. 1:30 7 2 11 340° N
Mo, 18.06. 1:00 7 2 14 340° N
Mo, 18.06. 0:30 9 2 15 320° NW
Ortszeit Untergrenze Bedeckung Gattung
total tief tief mittel hoch
Mo, 18.06. 2:00 2400 m 8/8 8/8 - - -
So, 17.06. 20:00 1500 m 8/8 7/8 - - -
So, 17.06. 14:00 1500 m 8/8 8/8 - - -
So, 17.06. 8:00 3300 m 5/8 1/8 - - -
So, 17.06. 2:00 3300 m 1/8 1/8 - - -
Sa, 16.06. 20:00 10500 m 1/8 0/8 - - -
Sa, 16.06. 14:00 1380 m 8/8 4/8 - - -
Sa, 16.06. 8:00 2100 m 8/8 8/8 - - -
Ortszeit Bedeckungsgrad in Achtel und Wolkenuntergrenze
Mo, 18.06. 3:30 8(2400m)
Mo, 18.06. 3:20 8(2400m)
Mo, 18.06. 3:10 8(2400m)
Mo, 18.06. 3:00 8(2400m)
Mo, 18.06. 2:50 8(2400m)
Mo, 18.06. 2:40 8(2700m)
Mo, 18.06. 2:30 8(2700m)
Mo, 18.06. 2:00 8(2400m)
Mo, 18.06. 1:30 7(2400m) 8(4500m)
Mo, 18.06. 1:00 4(4500m) 6(4500m)
Mo, 18.06. 0:30 3(4800m)
Ortszeit Luftdruck NN (hPa) Tendenz (hPa in 3 Std.)
Mo, 18.06. 2:00 1022 + 0,9
So, 17.06. 20:00 1019 + 1,0
So, 17.06. 14:00 1018 - 0,2
So, 17.06. 8:00 1018 + 1,2
So, 17.06. 2:00 1016 + 0,9
Sa, 16.06. 20:00 1014 - 0,6
Sa, 16.06. 14:00 1015 - 0,9
Sa, 16.06. 8:00 1016 + 0,1
Ortszeit Luftdruck NN (hPa) Tendenz (hPa in 3 Std.)
Mo, 18.06. 3:30 1022 + 0,7
Mo, 18.06. 3:20 1022 keine Meldung
Mo, 18.06. 3:10 1022 keine Meldung
Mo, 18.06. 3:00 1022 + 0,8
Mo, 18.06. 2:50 1022 keine Meldung
Mo, 18.06. 2:40 1022 keine Meldung
Mo, 18.06. 2:30 1022 + 1,0
Mo, 18.06. 2:00 1022 + 0,9
Mo, 18.06. 1:30 1022 + 1,2
Mo, 18.06. 1:00 1022 + 1,5
Mo, 18.06. 0:30 1021 + 1,6
Ortszeit Schneehöhe (cm)
Mo, 18.06. 2:00 -
So, 17.06. 20:00 -
So, 17.06. 14:00 -
So, 17.06. 8:00 -
So, 17.06. 2:00 -
Sa, 16.06. 20:00 -
Sa, 16.06. 14:00 -
Sa, 16.06. 8:00 -
Ortszeit Schneehöhe (cm)
Mo, 18.06. 3:30 -
Mo, 18.06. 3:20 -
Mo, 18.06. 3:10 -
Mo, 18.06. 3:00 -
Mo, 18.06. 2:50 -
Mo, 18.06. 2:40 -
Mo, 18.06. 2:30 -
Mo, 18.06. 2:00 -
Mo, 18.06. 1:30 -
Mo, 18.06. 1:00 -
Mo, 18.06. 0:30 -
Link zu dieser Seite / Seite empfehlen

Das Wetter in ...